Venez explorer les airs avec nous!

Que ce soit pour un vol de découverte, pour apprendre l’arts du pilotage ou pour voyager, venez nous rejoindre.

Information en heures locale pour LFDL
19 January 2022

Metar
LFBI 190230Z AUTO 20008KT 7000 OVC006/// 03/02 Q1031 TEMPO 1200 -RASN OVC002

Lever du soleil : 08:39

Coucher du soleil : 17:41

Actualité

Nous sommes heureux d’accueillir un ULM Savannah au sein de notre flotte. Grace à cet appareil, vous pourrez découvrir une …

Bonjour tout le monde !

Bienvenue à tous, l’ Aéroclub Loudunais vous accueille sur son nouveau site internet.

Newsletter Sign Up

Praesent libero sed cursus anted dapibus diam